| time (UTC) | temp F | wind direction | speed MPH | gust MPH | rain 1hr in | rain 24hr in | rain mn in | humidity % | barometer mb |
| 20260510144803 | 70 | 186 | 0.0 | 2.0 | 0.00 | 0.00 | 0.00 | 74 | 1017.2 |
| 20260510144304 | 70 | 240 | 2.0 | 3.0 | 0.00 | 0.00 | 0.00 | 76 | 1017.3 |
| 20260510143804 | 69 | 145 | 0.0 | 1.0 | 0.00 | 0.00 | 0.00 | 80 | 1017.3 |
| 20260510143303 | 69 | 124 | 0.0 | 2.0 | 0.00 | 0.00 | 0.00 | 78 | 1017.3 |
| 20260510141803 | 68 | 263 | 0.0 | 1.0 | 0.00 | 0.00 | 0.00 | 82 | 1017.2 |
| 20260510141303 | 68 | 343 | 0.0 | 0.0 | 0.00 | 0.00 | 0.00 | 82 | 1017.1 |
| 20260510140304 | 67 | 82 | 0.0 | 2.0 | 0.00 | 0.00 | 0.00 | 84 | 1017.1 |
| 20260510134304 | 66 | 82 | 0.0 | 1.0 | 0.00 | 0.00 | 0.00 | 88 | 1016.8 |
| 20260510133803 | 65 | 88 | 0.0 | 1.0 | 0.00 | 0.00 | 0.00 | 91 | 1016.8 |
| 20260510133303 | 64 | 87 | 1.0 | 2.0 | 0.00 | 0.00 | 0.00 | 92 | 1016.8 |
| 20260510131804 | 63 | 102 | 0.0 | 1.0 | 0.00 | 0.00 | 0.00 | 94 | 1016.7 |
| 20260510131304 | 63 | 53 | 0.0 | 1.0 | 0.00 | 0.00 | 0.00 | 94 | 1016.7 |
| 20260510130804 | 63 | 47 | 0.0 | 0.0 | 0.00 | 0.00 | 0.00 | 94 | 1016.6 |
| 20260510130304 | 62 | 47 | 0.0 | 1.0 | 0.00 | 0.00 | 0.00 | 95 | 1016.6 |
| 20260510124804 | 62 | 5 | 0.0 | 0.0 | 0.00 | 0.00 | 0.00 | 95 | 1016.7 |
| 20260510124304 | 62 | 0 | 0.0 | 0.0 | 0.00 | 0.00 | 0.00 | 95 | 1016.6 |
| 20260510123803 | 62 | 0 | 0.0 | 0.0 | 0.00 | 0.00 | 0.00 | 95 | 1016.6 |
| 20260510123304 | 61 | 0 | 0.0 | 1.0 | 0.00 | 0.00 | 0.00 | 95 | 1016.5 |
| 20260510121806 | 61 | 0 | 0.0 | 0.0 | 0.00 | 0.00 | 0.00 | 95 | 1016.3 |
| 20260510121304 | 61 | 0 | 0.0 | 1.0 | 0.00 | 0.00 | 0.00 | 95 | 1016.3 |
| 20260510120803 | 61 | 10 | 0.0 | 0.0 | 0.00 | 0.00 | 0.00 | 95 | 1016.3 |
| 20260510120303 | 61 | 10 | 0.0 | 0.0 | 0.00 | 0.00 | 0.00 | 95 | 1016.2 |
| 20260510114804 | 61 | 10 | 0.0 | 0.0 | 0.00 | 0.00 | 0.00 | 95 | 1016.0 |
| 20260510114304 | 61 | 16 | 0.0 | 2.0 | 0.00 | 0.00 | 0.00 | 95 | 1015.8 |
| 20260510113304 | 60 | 59 | 0.0 | 2.0 | 0.00 | 0.00 | 0.00 | 95 | 1015.5 |
| 20260510111804 | 59 | 223 | 0.0 | 1.0 | 0.00 | 0.00 | 0.00 | 96 | 1015.3 |
| 20260510111304 | 58 | 223 | 0.0 | 1.0 | 0.00 | 0.00 | 0.00 | 96 | 1015.3 |
| 20260510110804 | 57 | 223 | 0.0 | 1.0 | 0.00 | 0.00 | 0.00 | 95 | 1015.3 |
| 20260510104803 | 57 | 223 | 0.0 | 0.0 | 0.00 | 0.00 | 0.00 | 95 | 1015.1 |
| 20260510104304 | 57 | 223 | 0.0 | 0.0 | 0.00 | 0.00 | 0.00 | 94 | 1015.0 |
| 20260510103804 | 57 | 223 | 0.0 | 0.0 | 0.00 | 0.00 | 0.00 | 94 | 1014.9 |
| 20260510103304 | 57 | 223 | 0.0 | 0.0 | 0.00 | 0.00 | 0.00 | 94 | 1015.0 |
| 20260510101804 | 57 | 223 | 0.0 | 0.0 | 0.00 | 0.00 | 0.00 | 94 | 1014.8 |
| 20260510101303 | 57 | 223 | 0.0 | 0.0 | 0.00 | 0.00 | 0.00 | 94 | 1014.8 |
| 20260510100804 | 57 | 223 | 0.0 | 0.0 | 0.00 | 0.00 | 0.00 | 94 | 1014.6 |
| 20260510100303 | 57 | 223 | 0.0 | 0.0 | 0.00 | 0.00 | 0.00 | 95 | 1014.6 |
| 20260510094804 | 58 | 223 | 0.0 | 0.0 | 0.00 | 0.00 | 0.00 | 94 | 1014.5 |
| 20260510094304 | 58 | 223 | 0.0 | 0.0 | 0.00 | 0.00 | 0.00 | 94 | 1014.5 |
| 20260510093304 | 58 | 223 | 0.0 | 0.0 | 0.00 | 0.00 | 0.00 | 94 | 1014.4 |
| 20260510091803 | 59 | 223 | 0.0 | 0.0 | 0.00 | 0.00 | 0.00 | 94 | 1014.3 |
| 20260510090803 | 59 | 223 | 0.0 | 0.0 | 0.00 | 0.00 | 0.00 | 94 | 1014.2 |
| 20260510090304 | 59 | 223 | 0.0 | 0.0 | 0.00 | 0.00 | 0.00 | 94 | 1014.2 |
| 20260510084803 | 59 | 223 | 0.0 | 0.0 | 0.00 | 0.00 | 0.00 | 94 | 1014.1 |
| 20260510084303 | 59 | 223 | 0.0 | 0.0 | 0.00 | 0.00 | 0.00 | 94 | 1014.1 |
| 20260510083804 | 59 | 223 | 0.0 | 0.0 | 0.00 | 0.00 | 0.00 | 94 | 1014.0 |
| 20260510081802 | 60 | 223 | 0.0 | 0.0 | 0.00 | 0.00 | 0.00 | 94 | 1013.8 |
| 20260510081303 | 60 | 223 | 0.0 | 0.0 | 0.00 | 0.00 | 0.00 | 94 | 1013.7 |
| 20260510080303 | 60 | 223 | 0.0 | 0.0 | 0.00 | 0.00 | 0.00 | 94 | 1013.7 |
| 20260510074803 | 60 | 223 | 0.0 | 0.0 | 0.00 | 0.00 | 0.00 | 94 | 1013.7 |
| 20260510074303 | 60 | 223 | 0.0 | 0.0 | 0.00 | 0.00 | 0.00 | 94 | 1013.8 |
| 20260510073802 | 60 | 223 | 0.0 | 0.0 | 0.00 | 0.00 | 0.00 | 94 | 1013.6 |
| 20260510073303 | 60 | 223 | 0.0 | 0.0 | 0.00 | 0.00 | 0.00 | 94 | 1013.5 |
| 20260510071802 | 60 | 223 | 0.0 | 0.0 | 0.00 | 0.00 | 0.00 | 94 | 1013.5 |
| 20260510071303 | 60 | 223 | 0.0 | 0.0 | 0.00 | 0.00 | 0.00 | 94 | 1013.5 |
| 20260510070802 | 60 | 223 | 0.0 | 0.0 | 0.00 | 0.00 | 0.00 | 94 | 1013.5 |
| 20260510070303 | 60 | 223 | 0.0 | 0.0 | 0.00 | 0.00 | 0.00 | 94 | 1013.5 |
| 20260510064803 | 60 | 223 | 0.0 | 0.0 | 0.00 | 0.00 | 0.00 | 93 | 1013.4 |
| 20260510064302 | 61 | 223 | 0.0 | 0.0 | 0.00 | 0.00 | 0.00 | 93 | 1013.4 |
| 20260510063803 | 61 | 223 | 0.0 | 0.0 | 0.00 | 0.00 | 0.00 | 93 | 1013.3 |
| 20260510063302 | 61 | 223 | 0.0 | 0.0 | 0.00 | 0.00 | 0.00 | 93 | 1013.5 |
| 20260510061803 | 61 | 223 | 0.0 | 0.0 | 0.00 | 0.00 | 0.00 | 93 | 1013.6 |
| 20260510061303 | 61 | 223 | 0.0 | 1.0 | 0.00 | 0.00 | 0.00 | 93 | 1013.6 |
| 20260510060803 | 61 | 223 | 0.0 | 0.0 | 0.00 | 0.00 | 0.00 | 93 | 1013.7 |
| 20260510060303 | 61 | 223 | 0.0 | 0.0 | 0.00 | 0.00 | 0.00 | 93 | 1013.5 |
| 20260510054802 | 61 | 223 | 0.0 | 0.0 | 0.00 | 0.00 | 0.00 | 93 | 1013.5 |
| 20260510054302 | 62 | 223 | 0.0 | 0.0 | 0.00 | 0.00 | 0.00 | 93 | 1013.5 |
| 20260510053304 | 62 | 223 | 0.0 | 0.0 | 0.00 | 0.00 | 0.00 | 93 | 1013.5 |
| 20260510051803 | 61 | 223 | 0.0 | 0.0 | 0.00 | 0.00 | 0.00 | 93 | 1013.9 |
| 20260510051302 | 61 | 223 | 0.0 | 0.0 | 0.00 | 0.00 | 0.00 | 93 | 1013.9 |
| 20260510050803 | 61 | 223 | 0.0 | 0.0 | 0.00 | 0.00 | 0.00 | 93 | 1013.9 |
| 20260510050303 | 61 | 223 | 0.0 | 0.0 | 0.00 | 0.00 | 0.00 | 93 | 1013.9 |
| 20260510044802 | 61 | 223 | 0.0 | 0.0 | 0.00 | 0.00 | 0.00 | 93 | 1014.1 |
| 20260510044303 | 62 | 223 | 0.0 | 0.0 | 0.00 | 0.00 | 0.00 | 93 | 1014.0 |
| 20260510043802 | 62 | 223 | 0.0 | 0.0 | 0.00 | 0.00 | 0.00 | 93 | 1014.0 |
| 20260510043303 | 62 | 223 | 0.0 | 0.0 | 0.00 | 0.00 | 0.00 | 93 | 1014.1 |
| 20260510041802 | 62 | 223 | 0.0 | 0.0 | 0.00 | 0.00 | 0.00 | 93 | 1014.1 |
| 20260510041303 | 62 | 223 | 0.0 | 0.0 | 0.00 | 0.00 | 0.00 | 93 | 1014.2 |
| 20260510040821 | 62 | 223 | 0.0 | 0.0 | 0.00 | 0.00 | 0.00 | 93 | 1014.2 |
| 20260510040302 | 62 | 223 | 0.0 | 0.0 | 0.00 | 0.00 | 0.00 | 93 | 1014.2 |
| 20260510034803 | 61 | 223 | 0.0 | 0.0 | 0.00 | 0.00 | 0.00 | 93 | 1014.1 |
| 20260510034303 | 61 | 223 | 0.0 | 0.0 | 0.00 | 0.00 | 0.00 | 93 | 1014.1 |
| 20260510033802 | 61 | 223 | 0.0 | 0.0 | 0.00 | 0.00 | 0.00 | 93 | 1014.1 |
| 20260510033303 | 61 | 223 | 0.0 | 0.0 | 0.00 | 0.00 | 0.00 | 93 | 1014.1 |
| 20260510031802 | 61 | 223 | 0.0 | 0.0 | 0.00 | 0.00 | 0.00 | 93 | 1014.2 |
| 20260510031303 | 61 | 223 | 0.0 | 0.0 | 0.00 | 0.00 | 0.00 | 93 | 1014.0 |
| 20260510030803 | 61 | 223 | 0.0 | 0.0 | 0.00 | 0.00 | 0.00 | 93 | 1014.1 |
| 20260510030303 | 62 | 223 | 0.0 | 0.0 | 0.00 | 0.00 | 0.00 | 93 | 1014.1 |
| 20260510024803 | 62 | 223 | 0.0 | 0.0 | 0.00 | 0.00 | 0.00 | 93 | 1013.9 |
| 20260510024303 | 62 | 223 | 0.0 | 0.0 | 0.00 | 0.00 | 0.00 | 93 | 1013.9 |
| 20260510023802 | 62 | 223 | 0.0 | 0.0 | 0.00 | 0.00 | 0.00 | 92 | 1013.9 |
| 20260510021303 | 62 | 223 | 0.0 | 0.0 | 0.00 | 0.00 | 0.00 | 92 | 1013.6 |
| 20260510020802 | 62 | 223 | 0.0 | 0.0 | 0.00 | 0.00 | 0.00 | 92 | 1013.6 |
| 20260510020303 | 62 | 223 | 0.0 | 0.0 | 0.00 | 0.00 | 0.00 | 92 | 1013.5 |
| 20260510014303 | 63 | 223 | 0.0 | 0.0 | 0.00 | 0.00 | 0.00 | 92 | 1013.4 |
| 20260510013803 | 63 | 223 | 0.0 | 0.0 | 0.00 | 0.00 | 0.00 | 92 | 1013.3 |
| 20260510013303 | 63 | 223 | 0.0 | 0.0 | 0.00 | 0.00 | 0.00 | 92 | 1013.2 |
| 20260510011803 | 63 | 223 | 0.0 | 0.0 | 0.00 | 0.00 | 0.00 | 92 | 1013.2 |
| 20260510011303 | 63 | 223 | 0.0 | 0.0 | 0.00 | 0.00 | 0.00 | 91 | 1013.1 |
| 20260510010303 | 63 | 223 | 0.0 | 0.0 | 0.00 | 0.00 | 0.00 | 91 | 1012.8 |
| 20260510004803 | 64 | 223 | 0.0 | 0.0 | 0.00 | 0.00 | 0.00 | 91 | 1012.7 |
| 20260510004303 | 64 | 223 | 0.0 | 0.0 | 0.00 | 0.00 | 0.00 | 90 | 1012.8 |
| 20260510003803 | 64 | 223 | 0.0 | 0.0 | 0.00 | 0.00 | 0.00 | 90 | 1012.7 |
| 20260510003303 | 64 | 223 | 0.0 | 0.0 | 0.00 | 0.00 | 0.00 | 90 | 1012.7 |
| 20260510001803 | 64 | 223 | 0.0 | 0.0 | 0.00 | 0.00 | 0.00 | 89 | 1012.6 |
| 20260510001303 | 64 | 223 | 0.0 | 0.0 | 0.00 | 0.00 | 0.00 | 89 | 1012.5 |
| 20260510000803 | 65 | 223 | 0.0 | 0.0 | 0.00 | 0.00 | 0.00 | 89 | 1012.5 |
| 20260510000304 | 65 | 223 | 0.0 | 0.0 | 0.00 | 0.00 | 0.00 | 89 | 1012.5 |
| 20260509234803 | 65 | 223 | 0.0 | 0.0 | 0.00 | 0.00 | 0.00 | 89 | 1012.5 |
| 20260509234303 | 65 | 223 | 0.0 | 0.0 | 0.00 | 0.00 | 0.00 | 88 | 1012.3 |
| 20260509233803 | 66 | 223 | 0.0 | 0.0 | 0.00 | 0.00 | 0.00 | 88 | 1012.1 |
| 20260509231803 | 66 | 223 | 0.0 | 0.0 | 0.00 | 0.00 | 0.00 | 87 | 1011.9 |
| 20260509231303 | 67 | 223 | 0.0 | 0.0 | 0.00 | 0.00 | 0.00 | 86 | 1011.8 |
| 20260509230803 | 67 | 223 | 0.0 | 0.0 | 0.00 | 0.00 | 0.00 | 85 | 1011.9 |
| 20260509224803 | 68 | 223 | 0.0 | 0.0 | 0.00 | 0.00 | 0.00 | 82 | 1011.8 |
| 20260509224303 | 68 | 223 | 0.0 | 0.0 | 0.00 | 0.00 | 0.00 | 82 | 1011.7 |
| 20260509223803 | 68 | 223 | 0.0 | 1.0 | 0.00 | 0.00 | 0.00 | 81 | 1011.6 |
| 20260509223303 | 68 | 223 | 0.0 | 1.0 | 0.00 | 0.00 | 0.00 | 81 | 1011.7 |
| 20260509221803 | 69 | 223 | 0.0 | 1.0 | 0.00 | 0.00 | 0.00 | 80 | 1011.6 |
| 20260509221303 | 69 | 223 | 0.0 | 1.0 | 0.00 | 0.00 | 0.00 | 80 | 1011.5 |
| 20260509220803 | 69 | 225 | 0.0 | 1.0 | 0.00 | 0.00 | 0.00 | 81 | 1011.6 |
| 20260509220303 | 69 | 225 | 0.0 | 1.0 | 0.00 | 0.00 | 0.00 | 80 | 1011.6 |
| 20260509214803 | 69 | 224 | 0.0 | 1.0 | 0.00 | 0.00 | 0.00 | 79 | 1011.7 |
| 20260509214303 | 69 | 224 | 1.0 | 2.0 | 0.00 | 0.00 | 0.00 | 78 | 1011.7 |
| 20260509213303 | 69 | 213 | 0.0 | 1.0 | 0.00 | 0.00 | 0.00 | 78 | 1011.2 |
| 20260509211303 | 69 | 220 | 0.0 | 1.0 | 0.00 | 0.00 | 0.00 | 79 | 1011.2 |
| 20260509210804 | 69 | 198 | 0.0 | 0.0 | 0.00 | 0.00 | 0.00 | 79 | 1011.2 |
| 20260509204804 | 69 | 198 | 0.0 | 2.0 | 0.00 | 0.00 | 0.00 | 76 | 1011.1 |
| 20260509204303 | 69 | 189 | 0.0 | 2.0 | 0.00 | 0.00 | 0.00 | 76 | 1011.1 |
| 20260509203803 | 69 | 261 | 1.0 | 2.0 | 0.00 | 0.00 | 0.00 | 78 | 1011.3 |
| 20260509203303 | 69 | 278 | 0.0 | 2.0 | 0.00 | 0.00 | 0.00 | 80 | 1011.2 |
| 20260509201303 | 69 | 260 | 1.0 | 2.0 | 0.00 | 0.00 | 0.00 | 77 | 1011.7 |
| 20260509200803 | 69 | 227 | 0.0 | 1.0 | 0.00 | 0.00 | 0.00 | 79 | 1011.7 |
| 20260509194303 | 68 | 250 | 0.0 | 2.0 | 0.00 | 0.00 | 0.00 | 80 | 1011.8 |
| 20260509193803 | 68 | 249 | 0.0 | 0.0 | 0.00 | 0.00 | 0.00 | 81 | 1011.8 |
| 20260509193303 | 68 | 249 | 0.0 | 2.0 | 0.00 | 0.00 | 0.00 | 80 | 1011.8 |
| 20260509191303 | 68 | 197 | 1.0 | 2.0 | 0.00 | 0.00 | 0.00 | 79 | 1011.9 |
| 20260509190803 | 68 | 210 | 1.0 | 2.0 | 0.00 | 0.00 | 0.00 | 79 | 1012.0 |
| 20260509184803 | 68 | 229 | 0.0 | 2.0 | 0.00 | 0.00 | 0.00 | 81 | 1012.0 |
| 20260509184303 | 67 | 223 | 0.0 | 1.0 | 0.00 | 0.00 | 0.00 | 82 | 1012.0 |
| 20260509183803 | 67 | 240 | 0.0 | 1.0 | 0.00 | 0.00 | 0.00 | 83 | 1012.1 |
| 20260509183303 | 67 | 240 | 0.0 | 3.0 | 0.00 | 0.00 | 0.00 | 82 | 1012.2 |
| 20260509181803 | 67 | 193 | 0.0 | 1.0 | 0.00 | 0.00 | 0.00 | 84 | 1012.4 |
| 20260509181303 | 66 | 192 | 1.0 | 2.0 | 0.00 | 0.00 | 0.00 | 83 | 1012.3 |
| 20260509180803 | 66 | 173 | 2.0 | 3.0 | 0.00 | 0.00 | 0.00 | 84 | 1012.4 |
| 20260509180303 | 66 | 192 | 0.0 | 2.0 | 0.00 | 0.00 | 0.00 | 84 | 1012.3 |
| 20260509174803 | 66 | 209 | 1.0 | 2.0 | 0.00 | 0.00 | 0.00 | 84 | 1012.2 |
| 20260509174304 | 66 | 186 | 1.0 | 3.0 | 0.00 | 0.00 | 0.00 | 86 | 1012.2 |
| 20260509173304 | 65 | 202 | 0.0 | 1.0 | 0.00 | 0.00 | 0.00 | 87 | 1012.2 |
| 20260509171303 | 65 | 226 | 0.0 | 2.0 | 0.00 | 0.00 | 0.00 | 88 | 1012.2 |
| 20260509170803 | 65 | 226 | 1.0 | 3.0 | 0.00 | 0.00 | 0.00 | 88 | 1012.5 |
| 20260509170304 | 65 | 175 | 1.0 | 3.0 | 0.00 | 0.00 | 0.00 | 89 | 1012.4 |
| 20260509164803 | 64 | 185 | 0.0 | 2.0 | 0.00 | 0.00 | 0.00 | 90 | 1012.5 |
| 20260509164304 | 64 | 185 | 1.0 | 2.0 | 0.00 | 0.00 | 0.00 | 89 | 1012.6 |
| 20260509163303 | 64 | 171 | 0.0 | 3.0 | 0.00 | 0.00 | 0.00 | 90 | 1012.5 |
| 20260509161303 | 64 | 215 | 0.0 | 1.0 | 0.00 | 0.00 | 0.00 | 89 | 1012.7 |
| 20260509160803 | 64 | 213 | 0.0 | 0.0 | 0.00 | 0.00 | 0.00 | 89 | 1012.5 |
| 20260509160303 | 64 | 184 | 1.0 | 2.0 | 0.00 | 0.00 | 0.00 | 89 | 1012.4 |
| 20260509154803 | 64 | 155 | 0.0 | 1.0 | 0.00 | 0.00 | 0.00 | 90 | 1012.4 |
| 20260509154303 | 63 | 149 | 0.0 | 1.0 | 0.00 | 0.00 | 0.00 | 90 | 1012.3 |
| 20260509153804 | 63 | 149 | 0.0 | 1.0 | 0.00 | 0.00 | 0.00 | 90 | 1012.6 |
| 20260509153303 | 63 | 242 | 0.0 | 1.0 | 0.00 | 0.00 | 0.00 | 90 | 1012.6 |
| 20260509151803 | 63 | 174 | 0.0 | 0.0 | 0.00 | 0.00 | 0.00 | 90 | 1013.1 |
| 20260509151303 | 63 | 173 | 1.0 | 2.0 | 0.00 | 0.00 | 0.00 | 90 | 1013.1 |
| 20260509150803 | 63 | 217 | 0.0 | 1.0 | 0.00 | 0.00 | 0.00 | 90 | 1013.2 |